(223200) = 2003 BF30

Discovered at Socorro on 2003-01-27 by LINEAR.

Orbit

Orbit type: Main Belt

Note: WebGL enabled browser required.

epoch2023-09-13.0
epoch JD2460200.5
perihelion date2022-03-12.13686
perihelion JD2459650.63686
argument of perihelion (°)347.02633
ascending node (°)129.18928
inclination (°)3.18361
eccentricity0.1289481
perihelion distance (AU)2.1353596
Tisserand w.r.t. Jupiter3.5
ΔV w.r.t. Earth (km/sec)9.2
semimajor axis (AU)2.4514723
mean anomaly (°)141.19456
mean daily motion (°/day)0.25678130
aphelion distance (AU)2.768
period (years)3.84
P-vector [x]-0.44201884
P-vector [y]0.82786667
P-vector [z]0.34533480
Q-vector [x]-0.89597242
Q-vector [y]-0.42595307
Q-vector [z]-0.12568772
absolute magnitude17.33
phase slope0.15
uncertainty0
referenceMPEC 2023-N53
observations used320
oppositions13
arc length (days)7484
first opposition used2003
last opposition used2023
residual rms (arc-secs)0.74
perturbers coarse indicatorM-v
perturbers precise indicator003Ek
first observation date used2003-01-08.0
last observation date used2023-07-06.0
computer nameMPCLINUX
JD of orbit computation2456639.588055
perihelion JD uncertainty (days)1.9948E-04
argument of perihelion uncertainty (°)1.3509E-04
ascending node uncertainty (°)1.2394E-04
inclination uncertainty (°)6.7884E-06
eccentricity uncertainty 6.6967E-08
perihelion distance uncertainty (AU)1.6572E-07
Minimum Orbit Intersection Distances (in AU)
for orbit epoch: 2460000.5, reference: E2023-N53
Mercury1.81312
Venus1.41876
Earth1.15205
Mars0.49669
Jupiter2.30978
Saturn6.85984
Uranus16.1666
Neptune27.3062

Observations

317 total observations over interval: 2003 01 08.34012 – 2023 07 06.310921
These data are available for download (format description).

Date (UT) J2000 RA J2000 Dec Magn Location Ref
2003 01 08.34012 08 53 48.49 +16 34 56.1 20.2   704 – Lincoln Laboratory ETS, New Mexico MPS 73346
2003 01 08.35471 08 53 47.97 +16 35 00.5 19.5   704 – Lincoln Laboratory ETS, New Mexico MPS 73346
2003 01 08.36943 08 53 47.27 +16 35 05.7 20.1   704 – Lincoln Laboratory ETS, New Mexico MPS 73346
2003 01 27.30767 08 37 12.95 +18 17 40.7 19.2   704 – Lincoln Laboratory ETS, New Mexico MPS 71914
2003 01 27.32306 08 37 12.04 +18 17 44.1 19.2   704 – Lincoln Laboratory ETS, New Mexico MPS 71914
2003 01 27.33841 08 37 11.10 +18 17 48.4 19.6   704 – Lincoln Laboratory ETS, New Mexico MPS 71914
2003 01 27.35389 08 37 10.11 +18 17 54.4 19.4   704 – Lincoln Laboratory ETS, New Mexico MPS 71914
2003 01 27.36925 08 37 09.15 +18 18 00.6 19.8   704 – Lincoln Laboratory ETS, New Mexico MPS 71914
2003 01 28.23333 08 36 18.83 +18 22 57.3 19.3   704 – Lincoln Laboratory ETS, New Mexico MPS 71914
2003 01 28.24888 08 36 17.86 +18 23 02.9 19.6   704 – Lincoln Laboratory ETS, New Mexico MPS 71914
2003 01 28.26437 08 36 16.90 +18 23 08.2 19.7   704 – Lincoln Laboratory ETS, New Mexico MPS 71914
2003 01 28.29516 08 36 15.01 +18 23 20.4 19.4   704 – Lincoln Laboratory ETS, New Mexico MPS 71914
2003 01 29.19340 08 35 22.70 +18 28 26.0 19.9 V 291 – LPL/Spacewatch II MPS 73346
2003 01 29.21835 08 35 21.16 +18 28 34.6 19.8 V 291 – LPL/Spacewatch II MPS 73346
2003 01 29.24357 08 35 19.62 +18 28 43.4 19.9 V 291 – LPL/Spacewatch II MPS 73346
2003 01 30.23797 08 34 21.53 +18 34 21.3 19.2   644 – Palomar Mountain/NEAT MPS 71914
2003 01 30.31438 08 34 16.86 +18 34 47.7 19.3   644 – Palomar Mountain/NEAT MPS 71914
2003 01 30.38531 08 34 12.55 +18 35 11.4 19.2   644 – Palomar Mountain/NEAT MPS 71914
2003 01 31.25237 08 33 22.29 +18 40 04.4 19.3   704 – Lincoln Laboratory ETS, New Mexico MPS 71914
2003 01 31.25249 08 33 22.30 +18 40 03.7 19.3   704 – Lincoln Laboratory ETS, New Mexico MPS 71914
2003 01 31.26655 08 33 21.44 +18 40 09.5 19.6   704 – Lincoln Laboratory ETS, New Mexico MPS 71914
2003 01 31.26667 08 33 21.46 +18 40 09.0 19.9   704 – Lincoln Laboratory ETS, New Mexico MPS 71914
2003 01 31.28069 08 33 20.58 +18 40 14.1 19.7   704 – Lincoln Laboratory ETS, New Mexico MPS 71914
2003 01 31.28081 08 33 20.56 +18 40 14.2 19.8   704 – Lincoln Laboratory ETS, New Mexico MPS 71914
2003 01 31.29480 08 33 19.69 +18 40 18.0 19.7   704 – Lincoln Laboratory ETS, New Mexico MPS 71914
2003 01 31.29492 08 33 19.77 +18 40 17.2 19.5   704 – Lincoln Laboratory ETS, New Mexico MPS 71914
2003 01 31.30891 08 33 18.82 +18 40 23.6 19.4   704 – Lincoln Laboratory ETS, New Mexico MPS 71914
2003 01 31.30903 08 33 18.79 +18 40 23.5 19.6   704 – Lincoln Laboratory ETS, New Mexico MPS 71914
2003 01 31.32538 08 33 17.91 +18 40 28.7 19.7   704 – Lincoln Laboratory ETS, New Mexico MPS 71914
2003 01 31.33936 08 33 17.04 +18 40 33.4 20.1   704 – Lincoln Laboratory ETS, New Mexico MPS 71914
2003 01 31.36733 08 33 15.33 +18 40 44.0 19.5   704 – Lincoln Laboratory ETS, New Mexico MPS 71914
2003 01 31.38135 08 33 14.47 +18 40 47.1 19.9   704 – Lincoln Laboratory ETS, New Mexico MPS 71914
2003 02 01.23530 08 32 25.54 +18 45 34.0 19.2 C 704 – Lincoln Laboratory ETS, New Mexico MPS 293176
2003 02 01.25086 08 32 24.51 +18 45 38.2 20.0   704 – Lincoln Laboratory ETS, New Mexico MPS 71914
2003 02 01.26582 08 32 23.52 +18 45 42.3 19.1 C 704 – Lincoln Laboratory ETS, New Mexico MPS 293176
2003 02 01.26611 08 32 23.58 +18 45 43.0 19.7   704 – Lincoln Laboratory ETS, New Mexico MPS 71914
2003 02 01.28135 08 32 22.74 +18 45 47.4 19.9   704 – Lincoln Laboratory ETS, New Mexico MPS 71914
2003 02 01.29665 08 32 21.78 +18 45 54.0 19.8   704 – Lincoln Laboratory ETS, New Mexico MPS 71914
2003 02 07.31177 08 26 46.36 +19 18 08.9 21.4 R 699 – Lowell Observatory-LONEOS MPS 73346
2005 08 28.39380 00 21 11.35 -01 27 35.8 21.2 V 691 – Steward Observatory, Kitt Peak-Spacewatch MPS 140188
2005 08 28.41116 00 21 10.75 -01 27 41.2 21.3 V 691 – Steward Observatory, Kitt Peak-Spacewatch MPS 140188
2005 08 28.42850 00 21 10.17 -01 27 46.7 21.1 V 691 – Steward Observatory, Kitt Peak-Spacewatch MPS 140188
2005 09 01.37784 00 18 51.70 -01 49 48.5 20.6 V 691 – Steward Observatory, Kitt Peak-Spacewatch MPS 140188
2005 09 01.39868 00 18 50.81 -01 49 54.6 21.0 V 691 – Steward Observatory, Kitt Peak-Spacewatch MPS 140188
2005 09 01.41615 00 18 50.13 -01 50 00.7 20.8 V 691 – Steward Observatory, Kitt Peak-Spacewatch MPS 140188
2005 09 11.35435 00 11 41.19 -02 52 18.1 20.8 V 691 – Steward Observatory, Kitt Peak-Spacewatch MPS 141693
2005 09 11.37175 00 11 40.31 -02 52 25.0 20.8 V 691 – Steward Observatory, Kitt Peak-Spacewatch MPS 141693
2005 09 11.38923 00 11 39.42 -02 52 31.6 20.9 V 691 – Steward Observatory, Kitt Peak-Spacewatch MPS 141693
2006 12 16.48888 10 40 50.73 +08 35 21.3 21.1 V G96 – Mt. Lemmon Survey MPS 192112
2006 12 16.49405 10 40 50.98 +08 35 20.5 21.4 V G96 – Mt. Lemmon Survey MPS 192112
2006 12 16.49917 10 40 51.16 +08 35 19.2 20.9 V G96 – Mt. Lemmon Survey MPS 192112
2006 12 16.50441 10 40 51.45 +08 35 18.8 21.9 V G96 – Mt. Lemmon Survey MPS 192112
2007 01 27.48451 10 50 39.58 +09 02 25.6 20.4 V G96 – Mt. Lemmon Survey MPS 198084
2007 01 27.49237 10 50 39.33 +09 02 27.6 20.4 V G96 – Mt. Lemmon Survey MPS 198084
2007 01 27.50014 10 50 39.08 +09 02 30.0 20.1 V G96 – Mt. Lemmon Survey MPS 198084
2007 01 27.50793 10 50 38.94 +09 02 31.7 19.9 V G96 – Mt. Lemmon Survey MPS 198084
2007 02 22.26476 10 32 15.42 +11 49 49.6 19.3 R 699 – Lowell Observatory-LONEOS MPS 200339
2007 02 22.28670 10 32 14.15 +11 49 59.5   699 – Lowell Observatory-LONEOS MPS 200339
2007 02 22.30858 10 32 12.83 +11 50 06.3   699 – Lowell Observatory-LONEOS MPS 200339
2007 02 22.33054 10 32 11.67 +11 50 17.3   699 – Lowell Observatory-LONEOS MPS 200339
2007 02 26.19686 10 28 42.81 +12 17 32.2 19.8 V G96 – Mt. Lemmon Survey MPS 201481
2007 02 26.20309 10 28 42.49 +12 17 34.5 19.6 V G96 – Mt. Lemmon Survey MPS 201481
2007 02 26.20929 10 28 42.13 +12 17 37.3 19.7 V G96 – Mt. Lemmon Survey MPS 201481
2007 02 26.21556 10 28 41.77 +12 17 39.9 19.8 V G96 – Mt. Lemmon Survey MPS 201481
2007 02 27.16981 10 27 50.45 +12 24 14.9   691 – Steward Observatory, Kitt Peak-Spacewatch MPS 201481
2007 02 27.18746 10 27 49.49 +12 24 22.1   691 – Steward Observatory, Kitt Peak-Spacewatch MPS 201481
2007 02 27.20511 10 27 48.48 +12 24 29.4   691 – Steward Observatory, Kitt Peak-Spacewatch MPS 201481
2007 03 09.22799 10 19 15.96 +13 27 43.0 20.1 V 703 – Catalina Sky Survey MPS 202329
2007 03 09.23609 10 19 15.63 +13 27 46.0 19.2 V 703 – Catalina Sky Survey MPS 202329
2007 03 09.23990 10 19 15.50 +13 27 46.9 20.0 R 644 – Palomar Mountain/NEAT MPS 202989
2007 03 09.24424 10 19 15.31 +13 27 47.4 19.8 V 703 – Catalina Sky Survey MPS 202329
2007 03 09.25233 10 19 14.73 +13 27 51.5 19.9 V 703 – Catalina Sky Survey MPS 202329
2007 03 09.26033 10 19 14.47 +13 27 53.8 20.0 R 644 – Palomar Mountain/NEAT MPS 202989
2007 03 09.28079 10 19 13.48 +13 28 00.9 19.8 R 644 – Palomar Mountain/NEAT MPS 202989
2007 04 23.13153 10 10 34.50 +14 31 37.7 20.4 V G96 – Mt. Lemmon Survey MPS 208029
2007 04 23.13763 10 10 34.60 +14 31 36.6 21.2 V G96 – Mt. Lemmon Survey MPS 208029
2007 04 23.14387 10 10 34.86 +14 31 36.0 21.0 V G96 – Mt. Lemmon Survey MPS 208029
2007 04 23.15005 10 10 34.93 +14 31 34.7 21.6 V G96 – Mt. Lemmon Survey MPS 208029
2009 09 17.24752 01 31 16.88 +04 42 25.2 21.3 V 691 – Steward Observatory, Kitt Peak-Spacewatch MPS 294967
2009 09 17.26512 01 31 16.32 +04 42 19.4 21.2 V 691 – Steward Observatory, Kitt Peak-Spacewatch MPS 294967
2009 09 17.28271 01 31 15.66 +04 42 14.6 20.8 V 691 – Steward Observatory, Kitt Peak-Spacewatch MPS 294967
2009 09 29.27224 01 23 01.01 +03 33 48.6 20.6 V 691 – Steward Observatory, Kitt Peak-Spacewatch MPS 296877
2009 09 29.29333 01 22 59.96 +03 33 40.7 20.8 V 691 – Steward Observatory, Kitt Peak-Spacewatch MPS 296877
2009 09 29.31095 01 22 59.13 +03 33 34.1 20.4 V 691 – Steward Observatory, Kitt Peak-Spacewatch MPS 296877
2009 10 16.25036 01 08 04.88 +01 48 29.3 20.0 V G96 – Mt. Lemmon Survey MPS 299327
2009 10 16.25663 01 08 04.56 +01 48 27.1 20.1 V G96 – Mt. Lemmon Survey MPS 299327
2009 10 16.26281 01 08 04.20 +01 48 25.0 20.0 V G96 – Mt. Lemmon Survey MPS 299327
